Location: *
(57.8420°S, 159.8600°W)
Time: 05:19:05
(UTC+00:00)

Cosmos 2360 Rocket - Pass Details

Date: 18 May 2021
Orbit: 835 x 844 km, 71.0° (Epoch: 20 June)

Event Time Altitude Azimuth Distance (km) Brightness Sun altitude
Rises 03:02:33 0° 331° (NNW) 3,393 6.5 -4.9°
Reaches altitude 10° 03:04:59 10° 332° (NNW) 2,465 5.6 -5.2°
Maximum altitude 03:10:39 78° 57° (ENE) 875 2.3 -5.8°
Drops below altitude 10° 03:16:22 10° 142° (SE) 2,493 4.1 -6.5°
Enters shadow 03:17:35 - 142° (SE) 2,951 4.5 -6.6°
